Bonaire, Netherlands

5:17 AM AST on May 24, 2018 (GMT -0400)
Flamingo

Weather History for TNCB - April, 2014

Change the Weather History Date:

Monday, April 21, 2014

  Actual Average Record
Temperature  
Mean Temperature 83 °F -  
Max Temperature 86 °F 86 °F 93 °F (2007)
Min Temperature 80 °F 80 °F 75 °F (2011)
Cooling Degree Days 18    
Growing Degree Days 33 (Base 50)    
Moisture  
Dew Point 74 °F    
Average Humidity 75    
Maximum Humidity 84    
Minimum Humidity 66    
Precipitation  
Precipitation 0.00 in - - ()
Sea Level Pressure  
Sea Level Pressure 29.87 in    
Wind  
Wind Speed 17 mph ()    
Max Wind Speed 25 mph    
Max Gust Speed -    
Visibility 6.2 miles    
Events      
Averages and records for this station are not official NWS values.
T = Trace of Precipitation, MM = Missing Value Source: Averaged Metar Reports

Daily Weather History Graph

Daily Weather History Graph

Search for Another Location

Airport or City:

Astronomy

Apr. 21, 2014 Rise Set
Actual Time 6:17 AM AST 6:45 PM AST
Civil Twilight 5:56 AM AST 7:07 PM AST
Nautical Twilight 5:30 AM AST 7:32 PM AST
Astronomical Twilight 5:05 AM AST 7:58 PM AST
Moon No Moon Rise 11:53 AM AST (4/21)
Length of Visible Light 13h 11m
Length of Day
12h 27m
Waning Gibbous, 58% of the Moon is Illuminated
Apr 21
Waning Gibbous
Apr 22
Last Quarter
Apr 29
New
May 6
First Quarter
May 14
Full

Hourly Weather History & Observations

Time (AST) Temp. Heat Index Dew Point Humidity Pressure Visibility Wind Dir Wind Speed Gust Speed Precip Events Conditions
2:00 AM 80.6 °F 85.4 °F 73.4 °F 79% 29.92 in - ENE 17.3 mph - N/A   Unknown
3:00 AM 80.6 °F 85.4 °F 73.4 °F 79% 29.89 in 6.2 mi ENE 18.4 mph - N/A   Partly Cloudy
4:00 AM 80.6 °F 85.4 °F 73.4 °F 79% 29.89 in - ENE 17.3 mph - N/A   Unknown
5:00 AM 80.6 °F 85.4 °F 73.4 °F 79% 29.89 in - ENE 17.3 mph - N/A   Unknown
6:00 AM 80.6 °F 85.4 °F 73.4 °F 79% 29.89 in - East 17.3 mph - N/A   Unknown
8:00 AM 82.4 °F 88.2 °F 73.4 °F 74% 29.92 in 6.2 mi East 20.7 mph - N/A   Scattered Clouds
9:00 AM 82.4 °F 88.2 °F 73.4 °F 74% 29.92 in - East 20.7 mph - N/A   Unknown
10:00 AM 84.2 °F 92.3 °F 75.2 °F 74% 29.92 in 6.2 mi East 20.7 mph - N/A   Scattered Clouds
11:00 AM 86.0 °F 95.1 °F 75.2 °F 70% 29.92 in - East 21.9 mph - N/A   Unknown
12:00 PM 84.2 °F 90.9 °F 73.4 °F 70% 29.92 in 6.2 mi East 25.3 mph - N/A   Mostly Cloudy
1:00 PM 86.0 °F 95.1 °F 75.2 °F 70% 29.89 in 6.2 mi East 23.0 mph - N/A   Scattered Clouds
2:00 PM 86.0 °F 93.4 °F 73.4 °F 66% 29.86 in 6.2 mi East 20.7 mph - N/A   Scattered Clouds
3:00 PM 86.0 °F 93.4 °F 73.4 °F 66% 29.83 in - ENE 21.9 mph - N/A   Unknown
4:00 PM 84.2 °F 90.9 °F 73.4 °F 70% 29.80 in 6.2 mi ENE 23.0 mph - N/A   Scattered Clouds
5:00 PM 84.2 °F 90.9 °F 73.4 °F 70% 29.80 in 6.2 mi ENE 23.0 mph - N/A   Scattered Clouds
6:00 PM 82.4 °F 88.2 °F 73.4 °F 74% 29.80 in 6.2 mi ENE 21.9 mph - N/A   Scattered Clouds
7:00 PM 80.6 °F 85.4 °F 73.4 °F 79% 29.80 in 6.2 mi ENE 20.7 mph - N/A   Scattered Clouds
8:00 PM 80.6 °F 86.2 °F 75.2 °F 84% 29.83 in 6.2 mi NE 18.4 mph - N/A   Scattered Clouds
9:00 PM 80.6 °F 86.2 °F 75.2 °F 84% 29.83 in - NE 17.3 mph - N/A   Unknown
10:00 PM 80.6 °F 86.2 °F 75.2 °F 84% 29.86 in - ENE 18.4 mph - N/A   Unknown
11:00 PM 80.6 °F 85.4 °F 73.4 °F 79% 29.89 in - ENE 17.3 mph - N/A   Unknown